Weather in Svetly

Russia / Kamchatka Krai     53°04′58″N   158°34′13″E
temp.,
°C
wind,
m/s
gust,
m/s
humid.,
%
clouds,
%
prec.,
mm/h
press.,
hPa
HPBL,
m
6 august, fri
fri600:00+10wnw58780 0.0 1001228
03:00+9nw56800 0.0 1000211
06:00+8nw67810 0.0 1000194
09:00+10wnw68705 0.0 1001567
12:00+13wnw911545 0.0 10021205
15:00+16wnw11124721 0.0 1001987
18:00+16wnw911535 0.0 1001711
21:00+13w586839 0.0 1003174
7 august, sat
sat700:00+10wnw45775 0.0 1005193
03:00+9wnw457828 0.0 1007159
06:00+9nw3477100 0.0 1009157
09:00+11n117096 0.0 1011225
12:00+12ese2278100 0.1 1013423
15:00+11se2285100 0.6 1014272
18:00+11wsw217950 0.9 1015197
21:00+10wnw227874 0.0 1015138
8 august, sun
sun800:00+9nnw22805 0.0 101682
03:00+9nnw22789 0.0 101785
06:00+9nnw337827 0.0 1017107
09:00+12nw33725 0.0 1018246
12:00+14wsw01612 0.0 1018544
15:00+15se646623 0.0 1017332
18:00+14ese446826 0.1 1016256
21:00+11e3382100 0.0 101787
9 august, mon
mon900:00+11n2280100 0.0 101875
03:00+12nnw1173100 0.0 101744
06:00+12ne117599 0.0 101735
09:00+13ese1174100 0.0 101888
12:00+14se43756 0.1 1018362
15:00+13se55809 0.1 1017458
18:00+13ese448315 0.1 1017378
21:00+11se128958 0.0 1018104
10 august, tue
tue1000:00+11e019059 0.0 101878
03:00+11n118987 0.0 101871
06:00+11n128899 0.1 1017102
09:00+12n118342 0.0 1018254
12:00+13se337817 0.1 1018462
15:00+14ese437614 0.0 1017433
18:00+13se447221 0.1 1017324
21:00+11se227910 0.0 101740